Location: Monfort
(47.1967°N, 0.2115°W)
Time: 04:29:12
(UTC+00:00)

CZ-4 R/B - Pass Details

Date: 24 October 2020
Orbit: 532 x 598 km, 97.7° (Epoch: 01 December)

Event Time Altitude Azimuth Distance (km) Brightness Sun altitude
Rises 18:57:00 0° 182° (S) 2,718 4.8 -21.1°
Reaches altitude 10° 18:59:13 10° 190° (S) 1,819 4.0 -21.4°
Maximum altitude 19:02:56 41° 261° (W) 792 2.5 -22.1°
Drops below altitude 10° 19:06:39 10° 333° (NNW) 1,806 4.3 -22.7°
Sets 19:08:51 0° 341° (NNW) 2,697 5.2 -23.1°
